QPF
0.02 0.02 0.02 0.04 0.03 0.02 0.03 0.03 0.03 0.03 0.03 0.04 0.04 0.03 0.04 0.03 0.03 0.03 0.04 0.04 0.04 0.06 0.10 0.10 0.10 0.10 0.08 0.06 0.05 0.04 0.04 0.04 0.03 0.02 0.02 0.03 0.04 0.03 0.02 0.02 0.02 0.01 0.01
0.01 0.02 0.02 0.03 0.03 0.03 0.03 0.03 0.02 0.04 0.04 0.05 0.07 0.05 0.04 0.04 0.04 0.04 0.04 0.04 0.02 0.04 0.07 0.09 0.10 0.10 0.09 0.07 0.06 0.05 0.05 0.04 0.03 0.02 0.02 0.03 0.04 0.03 0.03 0.02 0.02 0.02 0.01
0.02 0.02 0.03 0.03 0.03 0.04 0.04 0.04 0.04 0.03 0.04 0.04 0.06 0.06 0.05 0.04 0.05 0.05 0.03 0.04 0.03 0.03 0.04 0.04 0.06 0.07 0.06 0.06 0.06 0.05 0.04 0.03 0.03 0.03 0.03 0.03 0.03 0.03 0.03 0.02 0.02 0.02 0.01
0.01 0.02 0.03 0.03 0.04 0.04 0.05 0.06 0.06 0.05 0.07 0.06 0.07 0.07 0.06 0.07 0.07 0.05 0.03 0.04 0.06 0.05 0.04 0.03 0.04 0.05 0.06 0.05 0.05 0.06 0.04 0.03 0.03 0.03 0.03 0.03 0.02 0.02 0.02 0.02 0.02 0.02 0.02
0.02 0.03 0.04 0.04 0.04 0.04 0.05 0.04 0.05 0.07 0.09 0.09 0.07 0.08 0.07 0.07 0.08 0.05 0.06 0.07 0.08 0.07 0.07 0.04 0.03 0.04 0.06 0.06 0.07 0.07 0.06 0.05 0.03 0.02 0.02 0.03 0.03 0.02 0.01 0.02 0.03 0.02 0.02
0.03 0.04 0.04 0.04 0.03 0.06 0.07 0.07 0.09 0.08 0.08 0.09 0.05 0.05 0.05 0.04 0.05 0.07 0.06 0.07 0.08 0.04 0.04 0.03 0.05 0.05 0.04 0.03 0.04 0.05 0.04 0.04 0.03 0.02 0.02 0.02 0.03 0.02 0.01 0.02 0.02 0.02 0.02
0.04 0.05 0.03 0.05 0.05 0.06 0.06 0.06 0.08 0.09 0.07 0.06 0.07 0.07 0.04 0.03 0.05 0.05 0.06 0.09 0.07 0.04 0.04 0.03 0.05 0.06 0.04 0.02 0.02 0.03 0.03 0.03 0.03 0.03 0.03 0.02 0.02 0.02 0.01 0.02 0.01 0.01 0.01
0.03 0.03 0.05 0.05 0.06 0.07 0.06 0.06 0.08 0.12 0.07 0.06 0.08 0.08 0.07 0.07 0.05 0.03 0.04 0.06 0.07 0.07 0.05 0.04 0.06 0.07 0.06 0.06 0.03 0.01 0.02 0.03 0.04 0.04 0.04 0.03 0.03 0.02 0.02 0.02 0.02 0.01 0.01
0.03 0.03 0.04 0.06 0.07 0.05 0.06 0.07 0.07 0.10 0.08 0.06 0.05 0.07 0.07 0.06 0.06 0.04 0.03 0.03 0.06 0.08 0.08 0.07 0.06 0.05 0.04 0.06 0.05 0.02 0.01 0.01 0.02 0.04 0.04 0.04 0.02 0.02 0.02 0.03 0.02 0.02 0.02
0.04 0.04 0.05 0.05 0.06 0.05 0.07 0.06 0.04 0.06 0.07 0.06 0.04 0.03 0.04 0.05 0.06 0.05 0.04 0.03 0.03 0.06 0.05 0.03 0.03 0.03 0.04 0.04 0.05 0.02 0.00 0.00 0.01 0.02 0.02 0.02 0.02 0.01 0.01 0.01 0.01 0.02 0.02
0.04 0.04 0.06 0.05 0.06 0.05 0.06 0.05 0.05 0.05 0.05 0.05 0.04 0.03 0.03 0.03 0.04 0.05 0.05 0.04 0.03 0.02 0.02 0.02 0.02 0.02 0.02 0.02 0.04 0.02 0.00 0.00 0.00 0.00 0.01 0.01 0.01 0.00 0.00 0.00 0.01 0.01 0.02
0.05 0.04 0.05 0.05 0.05 0.05 0.05 0.05 0.06 0.05 0.04 0.05 0.04 0.03 0.03 0.02 0.02 0.04 0.05 0.04 0.03 0.01 0.01 0.01 0.01 0.01 0.01 0.01 0.00 0.00 0.00 0.00 0.00 0.00 0.00 0.00 0.00 0.00 0.00 0.00 0.00 0.00 0.01
0.08 0.07 0.05 0.05 0.04 0.03 0.04 0.05 0.05 0.04 0.04 0.04 0.04 0.03 0.03 0.01 0.01 0.01 0.02 0.02 0.03 0.02 0.01 0.01 0.00 0.01 0.00 0.00 0.00 0.00 0.00 0.00 0.00 0.00 0.00 0.00 0.00 0.00 0.00 0.00 0.00 0.00 0.00
0.09 0.09 0.07 0.04 0.04 0.04 0.03 0.04 0.04 0.03 0.04 0.03 0.03 0.04 0.03 0.01 0.01 0.01 0.01 0.02 0.02 0.02 0.01 0.00 0.00 0.00 0.00 0.00 0.00 0.00 0.00 0.00 0.00 0.00 0.00 0.00 0.00 0.00 0.00 0.00 0.00 0.00 0.00
0.10 0.11 0.08 0.04 0.05 0.04 0.04 0.05 0.04 0.03 0.03 0.03 0.03 0.03 0.02 0.01 0.01 0.00 0.00 0.01 0.02 0.01 0.01 0.01 0.00 0.00 0.00 0.00 0.00 0.00 0.00 0.00 0.00 0.00 0.00 0.00 0.00 0.00 0.00 0.00 0.00 0.00 0.00
0.10 0.10 0.08 0.07 0.06 0.05 0.05 0.04 0.04 0.04 0.03 0.03 0.03 0.02 0.02 0.01 0.01 0.00 0.00 0.00 0.00 0.01 0.01 0.01 0.00 0.00 0.00 0.00 0.00 0.00 0.00 0.00 0.00 0.00 0.00 0.00 0.00 0.00 0.00 0.00 0.00 0.00 0.00
0.08 0.08 0.08 0.08 0.06 0.05 0.05 0.05 0.04 0.04 0.03 0.02 0.02 0.01 0.02 0.01 0.01 0.01 0.00 0.00 0.00 0.00 0.01 0.01 0.00 0.00 0.00 0.01 0.01 0.00 0.00 0.00 0.00 0.00 0.00 0.00 0.00 0.00 0.00 0.00 0.00 0.00 0.00
0.06 0.06 0.08 0.08 0.06 0.05 0.05 0.04 0.04 0.03 0.03 0.02 0.02 0.02 0.02 0.02 0.01 0.01 0.01 0.00 0.00 0.00 0.00 0.01 0.01 0.00 0.00 0.00 0.01 0.01 0.00 0.00 0.00 0.00 0.00 0.00 0.00 0.00 0.00 0.00 0.00 0.00 0.00
0.06 0.06 0.07 0.08 0.07 0.05 0.04 0.04 0.04 0.03 0.03 0.03 0.02 0.02 0.02 0.02 0.02 0.01 0.00 0.00 0.01 0.00 0.00 0.00 0.00 0.00 0.00 0.00 0.00 0.00 0.00 0.00 0.00 0.00 0.00 0.00 0.00 0.00 0.00 0.00 0.00 0.00 0.00
0.08 0.08 0.07 0.07 0.07 0.07 0.05 0.04 0.03 0.04 0.04 0.03 0.03 0.02 0.02 0.02 0.02 0.02 0.01 0.01 0.01 0.01 0.01 0.00 0.00 0.00 0.00 0.00 0.00 0.00 0.00 0.00 0.00 0.00 0.00 0.00 0.00 0.00 0.00 0.00 0.00 0.00 0.00
0.09 0.07 0.08 0.08 0.07 0.06 0.04 0.04 0.04 0.03 0.04 0.04 0.03 0.02 0.02 0.02 0.02 0.02 0.01 0.01 0.01 0.01 0.01 0.01 0.00 0.00 0.00 0.01 0.00 0.00 0.00 0.00 0.00 0.00 0.00 0.00 0.00 0.00 0.00 0.00 0.00 0.00 0.00
0.09 0.08 0.07 0.08 0.08 0.06 0.05 0.04 0.03 0.03 0.04 0.04 0.04 0.03 0.03 0.02 0.02 0.02 0.02 0.02 0.02 0.02 0.02 0.01 0.01 0.00 0.01 0.01 0.01 0.00 0.00 0.00 0.00 0.00 0.00 0.00 0.00 0.00 0.00 0.00 0.00 0.00 0.00
0.07 0.09 0.08 0.07 0.08 0.08 0.06 0.05 0.04 0.03 0.05 0.06 0.06 0.06 0.04 0.03 0.03 0.02 0.02 0.02 0.02 0.02 0.02 0.02 0.01 0.01 0.01 0.01 0.01 0.01 0.01 0.01 0.01 0.00 0.00 0.00 0.00 0.00 0.00 0.00 0.00 0.00 0.00
0.05 0.06 0.08 0.08 0.08 0.07 0.05 0.04 0.04 0.03 0.03 0.04 0.05 0.06 0.06 0.06 0.05 0.04 0.04 0.03 0.03 0.03 0.02 0.02 0.02 0.02 0.01 0.01 0.01 0.01 0.01 0.01 0.01 0.00 0.01 0.00 0.00 0.00 0.00 0.00 0.00 0.00 0.00
0.05 0.05 0.05 0.05 0.05 0.05 0.05 0.04 0.04 0.03 0.03 0.04 0.04 0.04 0.05 0.06 0.07 0.06 0.05 0.04 0.04 0.04 0.03 0.03 0.02 0.02 0.02 0.01 0.01 0.01 0.01 0.01 0.01 0.01 0.02 0.01 0.01 0.00 0.00 0.00 0.00 0.00 0.00
0.03 0.04 0.04 0.04 0.04 0.04 0.05 0.04 0.05 0.03 0.04 0.04 0.04 0.05 0.04 0.04 0.04 0.04 0.04 0.04 0.04 0.04 0.04 0.03 0.02 0.02 0.01 0.01 0.01 0.01 0.01 0.01 0.01 0.01 0.01 0.01 0.01 0.01 0.01 0.00 0.01 0.01 0.01
MSLP
1015.97 1016.14 1016.29 1016.43 1016.56 1016.69 1016.82 1016.92 1016.99 1017.01 1016.98 1016.92 1016.83 1016.77 1016.75 1016.82 1017.00 1017.29 1017.67 1018.11 1018.57 1019.02 1019.41 1019.74 1019.99 1020.18 1020.33 1020.47 1020.62 1020.80 1021.01 1021.24 1021.47 1021.70 1021.91 1022.09 1022.23 1022.35 1022.46 1022.55 1022.65 1022.75 1022.86
1016.04 1016.21 1016.37 1016.50 1016.64 1016.77 1016.90 1017.03 1017.14 1017.21 1017.24 1017.24 1017.20 1017.17 1017.15 1017.19 1017.29 1017.48 1017.75 1018.08 1018.45 1018.83 1019.19 1019.52 1019.80 1020.04 1020.25 1020.45 1020.64 1020.85 1021.07 1021.29 1021.53 1021.75 1021.95 1022.13 1022.29 1022.42 1022.53 1022.63 1022.73 1022.82 1022.90
1016.10 1016.30 1016.47 1016.63 1016.77 1016.92 1017.08 1017.23 1017.37 1017.49 1017.58 1017.63 1017.64 1017.63 1017.60 1017.59 1017.62 1017.70 1017.85 1018.05 1018.31 1018.61 1018.92 1019.24 1019.55 1019.83 1020.10 1020.35 1020.58 1020.81 1021.04 1021.27 1021.49 1021.70 1021.89 1022.07 1022.23 1022.37 1022.49 1022.60 1022.69 1022.78 1022.86
1016.13 1016.36 1016.57 1016.76 1016.93 1017.10 1017.28 1017.45 1017.62 1017.77 1017.90 1017.99 1018.03 1018.03 1018.00 1017.95 1017.91 1017.90 1017.93 1018.02 1018.17 1018.39 1018.65 1018.95 1019.26 1019.58 1019.88 1020.18 1020.45 1020.70 1020.93 1021.15 1021.35 1021.54 1021.72 1021.88 1022.04 1022.18 1022.31 1022.43 1022.53 1022.62 1022.69
1016.08 1016.36 1016.62 1016.85 1017.05 1017.25 1017.43 1017.61 1017.79 1017.95 1018.10 1018.21 1018.28 1018.29 1018.26 1018.20 1018.11 1018.03 1017.98 1017.98 1018.05 1018.19 1018.40 1018.67 1018.98 1019.31 1019.65 1019.97 1020.26 1020.52 1020.75 1020.96 1021.14 1021.30 1021.45 1021.60 1021.74 1021.88 1022.01 1022.13 1022.24 1022.33 1022.41
1015.94 1016.27 1016.58 1016.85 1017.09 1017.30 1017.49 1017.66 1017.83 1017.98 1018.12 1018.24 1018.32 1018.36 1018.34 1018.28 1018.19 1018.09 1018.00 1017.95 1017.96 1018.05 1018.22 1018.46 1018.75 1019.08 1019.42 1019.75 1020.05 1020.32 1020.55 1020.73 1020.89 1021.03 1021.15 1021.27 1021.39 1021.51 1021.63 1021.74 1021.86 1021.96 1022.05
1015.72 1016.09 1016.44 1016.75 1017.02 1017.24 1017.42 1017.58 1017.72 1017.85 1017.97 1018.09 1018.18 1018.24 1018.26 1018.23 1018.17 1018.08 1017.99 1017.93 1017.92 1017.98 1018.11 1018.32 1018.59 1018.90 1019.23 1019.55 1019.85 1020.12 1020.34 1020.52 1020.65 1020.77 1020.86 1020.95 1021.04 1021.13 1021.23 1021.34 1021.44 1021.54 1021.63
1015.43 1015.83 1016.21 1016.56 1016.85 1017.08 1017.26 1017.39 1017.50 1017.60 1017.71 1017.81 1017.91 1018.00 1018.06 1018.09 1018.08 1018.03 1017.98 1017.94 1017.92 1017.96 1018.06 1018.24 1018.47 1018.76 1019.06 1019.37 1019.67 1019.93 1020.15 1020.33 1020.46 1020.56 1020.63 1020.70 1020.76 1020.82 1020.88 1020.96 1021.04 1021.13 1021.21
1015.12 1015.53 1015.94 1016.31 1016.63 1016.87 1017.04 1017.16 1017.25 1017.33 1017.41 1017.51 1017.62 1017.74 1017.84 1017.92 1017.97 1017.98 1017.98 1017.96 1017.95 1017.98 1018.05 1018.19 1018.38 1018.62 1018.90 1019.19 1019.48 1019.74 1019.97 1020.16 1020.30 1020.41 1020.48 1020.52 1020.56 1020.58 1020.61 1020.65 1020.70 1020.76 1020.82
1014.82 1015.24 1015.66 1016.06 1016.39 1016.65 1016.83 1016.95 1017.03 1017.10 1017.17 1017.27 1017.39 1017.52 1017.66 1017.79 1017.89 1017.95 1017.98 1017.98 1017.98 1017.99 1018.03 1018.12 1018.26 1018.46 1018.70 1018.97 1019.25 1019.52 1019.77 1019.99 1020.16 1020.29 1020.37 1020.41 1020.43 1020.42 1020.41 1020.41 1020.42 1020.44 1020.47
1014.55 1014.97 1015.41 1015.82 1016.17 1016.45 1016.66 1016.80 1016.90 1016.97 1017.04 1017.14 1017.26 1017.41 1017.57 1017.72 1017.84 1017.93 1017.97 1017.98 1017.97 1017.95 1017.96 1017.99 1018.08 1018.23 1018.43 1018.67 1018.95 1019.24 1019.52 1019.77 1019.98 1020.14 1020.25 1020.31 1020.32 1020.30 1020.26 1020.21 1020.17 1020.15 1020.14
1014.32 1014.74 1015.17 1015.60 1015.98 1016.29 1016.53 1016.71 1016.83 1016.93 1017.02 1017.12 1017.24 1017.39 1017.54 1017.69 1017.81 1017.89 1017.93 1017.93 1017.90 1017.85 1017.81 1017.80 1017.83 1017.93 1018.09 1018.31 1018.57 1018.87 1019.17 1019.46 1019.72 1019.93 1020.07 1020.15 1020.17 1020.15 1020.08 1020.00 1019.92 1019.86 1019.81
1014.09 1014.50 1014.94 1015.38 1015.78 1016.13 1016.42 1016.64 1016.81 1016.94 1017.05 1017.16 1017.28 1017.41 1017.55 1017.67 1017.77 1017.84 1017.85 1017.83 1017.77 1017.69 1017.61 1017.55 1017.54 1017.59 1017.71 1017.89 1018.14 1018.43 1018.75 1019.07 1019.36 1019.60 1019.79 1019.90 1019.94 1019.92 1019.85 1019.75 1019.64 1019.54 1019.45
1013.83 1014.24 1014.68 1015.13 1015.55 1015.93 1016.26 1016.54 1016.75 1016.92 1017.06 1017.19 1017.31 1017.42 1017.53 1017.63 1017.70 1017.74 1017.73 1017.69 1017.61 1017.51 1017.40 1017.31 1017.26 1017.27 1017.35 1017.50 1017.71 1017.98 1018.29 1018.61 1018.91 1019.17 1019.38 1019.52 1019.58 1019.58 1019.52 1019.42 1019.30 1019.18 1019.06
1013.52 1013.93 1014.37 1014.81 1015.25 1015.66 1016.03 1016.35 1016.61 1016.83 1017.00 1017.14 1017.26 1017.37 1017.46 1017.53 1017.58 1017.60 1017.59 1017.54 1017.46 1017.36 1017.25 1017.16 1017.08 1017.06 1017.09 1017.19 1017.35 1017.57 1017.84 1018.12 1018.41 1018.67 1018.88 1019.03 1019.11 1019.13 1019.09 1019.00 1018.89 1018.76 1018.63
1013.15 1013.56 1013.99 1014.43 1014.88 1015.31 1015.71 1016.07 1016.37 1016.63 1016.83 1016.99 1017.12 1017.23 1017.32 1017.39 1017.44 1017.46 1017.46 1017.44 1017.39 1017.31 1017.22 1017.13 1017.05 1017.00 1016.99 1017.03 1017.13 1017.27 1017.46 1017.68 1017.91 1018.12 1018.31 1018.45 1018.54 1018.57 1018.55 1018.50 1018.41 1018.30 1018.18
1012.73 1013.14 1013.57 1014.02 1014.47 1014.91 1015.33 1015.71 1016.05 1016.33 1016.57 1016.76 1016.91 1017.03 1017.13 1017.22 1017.29 1017.35 1017.39 1017.41 1017.41 1017.38 1017.33 1017.27 1017.20 1017.12 1017.07 1017.04 1017.05 1017.10 1017.19 1017.31 1017.44 1017.58 1017.71 1017.82 1017.90 1017.94 1017.94 1017.92 1017.86 1017.79 1017.70
1012.32 1012.74 1013.17 1013.62 1014.07 1014.52 1014.94 1015.34 1015.70 1016.02 1016.28 1016.49 1016.67 1016.82 1016.95 1017.07 1017.18 1017.29 1017.38 1017.46 1017.52 1017.55 1017.55 1017.52 1017.45 1017.37 1017.27 1017.18 1017.10 1017.04 1017.01 1017.01 1017.04 1017.08 1017.13 1017.18 1017.22 1017.26 1017.27 1017.27 1017.26 1017.22 1017.18
1011.97 1012.41 1012.85 1013.30 1013.75 1014.20 1014.63 1015.04 1015.41 1015.74 1016.02 1016.26 1016.47 1016.65 1016.81 1016.97 1017.12 1017.27 1017.42 1017.55 1017.67 1017.75 1017.79 1017.78 1017.73 1017.63 1017.50 1017.34 1017.18 1017.02 1016.88 1016.76 1016.67 1016.60 1016.56 1016.54 1016.53 1016.54 1016.55 1016.57 1016.58 1016.60 1016.60
1011.71 1012.18 1012.64 1013.11 1013.56 1014.01 1014.44 1014.85 1015.22 1015.55 1015.84 1016.09 1016.32 1016.52 1016.71 1016.89 1017.08 1017.26 1017.44 1017.61 1017.75 1017.86 1017.93 1017.93 1017.88 1017.78 1017.62 1017.42 1017.19 1016.96 1016.72 1016.50 1016.30 1016.14 1016.00 1015.90 1015.83 1015.80 1015.79 1015.81 1015.85 1015.89 1015.94
1011.57 1012.07 1012.56 1013.04 1013.51 1013.96 1014.38 1014.77 1015.13 1015.45 1015.73 1015.99 1016.21 1016.42 1016.62 1016.81 1017.01 1017.19 1017.38 1017.54 1017.69 1017.80 1017.86 1017.86 1017.80 1017.69 1017.52 1017.29 1017.04 1016.76 1016.47 1016.18 1015.91 1015.67 1015.45 1015.27 1015.14 1015.06 1015.01 1015.01 1015.05 1015.11 1015.19
1011.52 1012.06 1012.58 1013.08 1013.54 1013.98 1014.38 1014.75 1015.08 1015.38 1015.64 1015.88 1016.09 1016.29 1016.47 1016.65 1016.82 1016.99 1017.14 1017.28 1017.39 1017.46 1017.50 1017.49 1017.42 1017.30 1017.13 1016.92 1016.66 1016.38 1016.09 1015.78 1015.47 1015.18 1014.91 1014.68 1014.48 1014.34 1014.25 1014.21 1014.23 1014.29 1014.37
1011.50 1012.07 1012.62 1013.12 1013.58 1014.00 1014.37 1014.70 1014.99 1015.24 1015.47 1015.67 1015.86 1016.03 1016.19 1016.34 1016.47 1016.59 1016.69 1016.77 1016.83 1016.85 1016.85 1016.81 1016.73 1016.62 1016.47 1016.30 1016.09 1015.85 1015.58 1015.30 1015.00 1014.70 1014.41 1014.13 1013.89 1013.69 1013.55 1013.46 1013.43 1013.46 1013.53
1011.45 1012.04 1012.58 1013.08 1013.51 1013.89 1014.22 1014.49 1014.72 1014.93 1015.11 1015.27 1015.42 1015.57 1015.69 1015.81 1015.90 1015.98 1016.02 1016.04 1016.04 1016.01 1015.97 1015.90 1015.83 1015.74 1015.64 1015.52 1015.38 1015.22 1015.02 1014.80 1014.55 1014.28 1013.99 1013.69 1013.42 1013.17 1012.97 1012.82 1012.74 1012.71 1012.73
1011.30 1011.87 1012.40 1012.86 1013.25 1013.57 1013.83 1014.04 1014.22 1014.36 1014.49 1014.62 1014.75 1014.87 1014.98 1015.08 1015.15 1015.19 1015.20 1015.18 1015.14 1015.08 1015.01 1014.94 1014.87 1014.81 1014.77 1014.72 1014.67 1014.60 1014.51 1014.37 1014.18 1013.96 1013.69 1013.40 1013.10 1012.82 1012.56 1012.36 1012.21 1012.11 1012.06
1011.00 1011.54 1012.02 1012.43 1012.76 1013.01 1013.20 1013.34 1013.45 1013.55 1013.64 1013.75 1013.86 1013.98 1014.10 1014.21 1014.29 1014.34 1014.35 1014.32 1014.27 1014.20 1014.13 1014.07 1014.03 1014.02 1014.03 1014.06 1014.10 1014.12 1014.11 1014.06 1013.95 1013.78 1013.54 1013.27 1012.96 1012.65 1012.35 1012.08 1011.86 1011.69 1011.57
Thickness
5753 5751 5749 5748 5749 5747 5746 5745 5745 5743 5743 5743 5743 5742 5742 5740 5740 5738 5731 5726 5724 5723 5722 5721 5719 5717 5716 5714 5713 5712 5711 5710 5708 5708 5707 5706 5705 5703 5703 5701 5701 5700 5699
5751 5750 5747 5746 5747 5746 5745 5744 5744 5742 5743 5742 5741 5740 5740 5739 5736 5735 5733 5727 5724 5722 5721 5720 5718 5716 5715 5714 5712 5711 5710 5709 5708 5707 5706 5705 5704 5703 5701 5700 5699 5699 5698
5749 5748 5748 5746 5746 5744 5742 5742 5741 5742 5741 5741 5740 5740 5739 5737 5735 5733 5733 5730 5726 5722 5721 5719 5718 5716 5715 5713 5712 5710 5709 5708 5707 5706 5705 5704 5703 5702 5701 5700 5698 5697 5697
5747 5746 5747 5746 5744 5743 5743 5741 5742 5742 5740 5740 5739 5739 5738 5735 5734 5733 5732 5730 5729 5727 5722 5720 5718 5716 5715 5714 5712 5711 5709 5708 5707 5706 5705 5704 5703 5702 5700 5699 5698 5697 5696
5745 5745 5746 5745 5742 5743 5743 5743 5741 5740 5738 5737 5738 5736 5737 5735 5734 5734 5732 5731 5728 5727 5726 5721 5719 5717 5716 5714 5713 5712 5710 5709 5707 5706 5705 5704 5703 5701 5700 5699 5698 5697 5696
5744 5745 5744 5743 5743 5743 5741 5740 5738 5737 5737 5737 5739 5737 5736 5736 5735 5734 5733 5732 5729 5728 5728 5725 5722 5719 5717 5715 5714 5713 5711 5710 5708 5707 5706 5704 5703 5702 5700 5699 5698 5697 5696
5743 5743 5745 5742 5742 5742 5741 5740 5738 5736 5736 5736 5735 5733 5735 5736 5735 5733 5733 5733 5732 5730 5728 5726 5725 5723 5720 5717 5715 5714 5712 5711 5709 5708 5707 5705 5704 5702 5701 5700 5699 5697 5696
5743 5743 5743 5742 5741 5741 5739 5739 5737 5736 5736 5736 5733 5730 5727 5729 5732 5736 5734 5732 5732 5730 5729 5728 5726 5723 5723 5721 5718 5715 5713 5712 5711 5709 5707 5706 5705 5704 5702 5701 5700 5698 5697
5742 5742 5742 5742 5741 5741 5740 5738 5737 5734 5733 5735 5737 5732 5727 5725 5729 5733 5734 5734 5732 5731 5731 5729 5728 5725 5724 5722 5720 5716 5715 5713 5712 5710 5709 5707 5706 5705 5703 5702 5701 5700 5699
5742 5741 5741 5740 5740 5742 5740 5739 5739 5738 5735 5734 5735 5735 5735 5734 5728 5726 5731 5734 5733 5731 5732 5733 5731 5727 5725 5724 5721 5718 5716 5714 5712 5711 5710 5708 5707 5706 5705 5703 5702 5701 5700
5742 5742 5740 5740 5739 5740 5740 5739 5738 5737 5738 5737 5736 5736 5734 5733 5734 5729 5725 5729 5732 5734 5734 5732 5731 5730 5727 5725 5723 5720 5716 5714 5713 5712 5710 5709 5708 5706 5705 5704 5703 5701 5700
5743 5742 5741 5740 5739 5740 5739 5738 5737 5737 5737 5737 5737 5738 5735 5734 5734 5733 5729 5728 5729 5733 5734 5733 5733 5731 5729 5727 5724 5720 5717 5715 5713 5712 5710 5709 5708 5707 5705 5704 5703 5702 5700
5743 5741 5741 5739 5739 5738 5738 5738 5736 5737 5737 5735 5735 5737 5738 5739 5739 5737 5734 5732 5730 5732 5732 5733 5733 5732 5731 5728 5724 5720 5717 5715 5713 5712 5710 5709 5708 5706 5705 5703 5702 5701 5700
5745 5742 5740 5739 5739 5738 5738 5737 5738 5737 5736 5736 5736 5736 5736 5739 5739 5738 5736 5733 5728 5729 5731 5732 5735 5733 5731 5729 5725 5720 5718 5716 5713 5712 5710 5709 5707 5706 5704 5703 5702 5700 5699
5745 5743 5741 5739 5739 5738 5737 5736 5737 5736 5736 5736 5737 5735 5736 5739 5738 5739 5738 5737 5730 5725 5727 5731 5732 5733 5730 5728 5724 5722 5721 5716 5714 5712 5710 5708 5706 5705 5704 5702 5701 5699 5698
5744 5742 5740 5739 5738 5738 5737 5736 5736 5736 5734 5734 5735 5735 5734 5738 5738 5737 5737 5736 5735 5731 5728 5734 5732 5734 5729 5729 5723 5722 5720 5717 5714 5712 5710 5708 5706 5704 5703 5701 5700 5698 5697
5742 5740 5738 5737 5737 5737 5736 5735 5736 5735 5733 5733 5734 5733 5732 5734 5735 5736 5735 5734 5733 5732 5727 5731 5733 5731 5726 5724 5723 5721 5721 5718 5717 5713 5710 5708 5706 5704 5702 5701 5699 5697 5696
5741 5740 5738 5736 5736 5736 5735 5734 5733 5734 5732 5732 5732 5732 5732 5732 5730 5732 5732 5732 5731 5730 5727 5725 5728 5728 5724 5723 5721 5719 5721 5721 5719 5715 5711 5708 5705 5703 5701 5700 5698 5696 5694
5739 5738 5737 5735 5734 5734 5733 5733 5732 5732 5732 5732 5732 5731 5730 5730 5727 5730 5728 5730 5730 5730 5727 5726 5725 5726 5725 5723 5720 5718 5719 5716 5716 5716 5711 5708 5705 5703 5701 5699 5697 5695 5692
5738 5737 5735 5734 5733 5733 5732 5731 5730 5730 5730 5730 5730 5729 5729 5728 5727 5726 5726 5725 5726 5725 5725 5723 5724 5724 5722 5721 5717 5716 5716 5716 5715 5715 5712 5709 5705 5702 5700 5698 5696 5693 5690
5737 5735 5734 5733 5732 5731 5732 5731 5729 5729 5727 5726 5726 5727 5727 5727 5726 5724 5725 5725 5723 5722 5722 5721 5721 5720 5719 5716 5714 5715 5714 5713 5713 5712 5709 5708 5706 5704 5702 5698 5695 5691 5688
5735 5734 5733 5731 5730 5731 5730 5727 5727 5727 5725 5724 5723 5724 5725 5723 5721 5718 5718 5717 5717 5717 5718 5717 5717 5716 5713 5714 5712 5710 5709 5706 5704 5710 5704 5703 5703 5702 5700 5698 5695 5689 5685
5733 5731 5731 5730 5729 5728 5725 5723 5721 5723 5723 5722 5722 5721 5723 5725 5720 5719 5715 5711 5711 5710 5709 5710 5711 5711 5710 5709 5705 5703 5701 5699 5698 5701 5698 5696 5699 5697 5696 5695 5689 5684 5680
5731 5729 5728 5728 5727 5725 5722 5719 5717 5718 5720 5720 5719 5719 5718 5719 5719 5716 5715 5713 5712 5711 5707 5705 5706 5706 5705 5703 5700 5697 5695 5693 5693 5693 5691 5688 5692 5691 5692 5689 5684 5680 5676
5729 5728 5727 5726 5724 5723 5718 5716 5713 5715 5715 5716 5717 5717 5716 5715 5713 5709 5708 5708 5708 5708 5706 5702 5700 5698 5696 5693 5691 5690 5690 5687 5688 5689 5688 5682 5683 5683 5684 5683 5680 5675 5670
5728 5727 5725 5724 5723 5722 5717 5714 5710 5714 5714 5713 5713 5714 5710 5710 5708 5704 5703 5703 5701 5701 5701 5699 5694 5692 5690 5687 5684 5681 5683 5681 5681 5680 5682 5677 5675 5672 5671 5675 5673 5669 5664